• In Portugal
  • List of Countries
  • For 7 days
  • Water Temperature
  • Satellite Maps
  • Weather Map
  • Weather Widgets
  • user-avatar
    Login

    Hourly Weather Annaba

    Today, 17 December, Sunday

    Time Temperature Precipitation Wind Pressure Humidity
    00:00 +8°C° 0.2 mm 6 mps 763 mmHg 85%
    01:00 +8°C° 0.2 mm 6 mps 763 mmHg 84%
    02:00 +8°C° 0.2 mm 6 mps 763 mmHg 84%
    03:00 +8°C° 0.2 mm 6 mps 764 mmHg 84%
    04:00 +8°C° 0.2 mm 6 mps 764 mmHg 84%
    05:00 +7°C° 0.1 mm 6 mps 764 mmHg 84%
    06:00 +7°C° 0.1 mm 6 mps 764 mmHg 85%
    07:00 +7°C° 0.1 mm 6 mps 765 mmHg 85%
    08:00 +8°C° 0.2 mm 6 mps 765 mmHg 81%
    09:00 +9°C° 0.2 mm 6 mps 765 mmHg 77%
    10:00 +10°C° 0.2 mm 7 mps 766 mmHg 73%
    11:00 +10°C° 0.2 mm 7 mps 766 mmHg 72%
    12:00 +10°C° 0.2 mm 8 mps 766 mmHg 71%
    13:00 +10°C° 0.2 mm 8 mps 766 mmHg 70%
    14:00 +10°C° 0.1 mm 8 mps 766 mmHg 70%
    15:00 +10°C° 0.1 mm 9 mps 766 mmHg 70%
    16:00 +10°C° 0.1 mm 9 mps 766 mmHg 71%
    17:00 +8°C° 0.1 mm 9 mps 766 mmHg 73%
    18:00 +8°C° 0.1 mm 9 mps 766 mmHg 76%
    19:00 +7°C° 0.1 mm 8 mps 767 mmHg 79%
    20:00 +7°C° 0.2 mm 8 mps 767 mmHg 80%
    21:00 +7°C° 0.2 mm 8 mps 768 mmHg 80%
    22:00 +7°C° 0.2 mm 8 mps 768 mmHg 81%
    23:00 +7°C° 0.3 mm 8 mps 768 mmHg 82%

    Tomorrow, 18 December, Monday

    Time Temperature Precipitation Wind Pressure Humidity
    00:00 +7°C° 0.3 mm 8 mps 768 mmHg 83%
    01:00 +8°C° 0.3 mm 7 mps 768 mmHg 84%
    02:00 +8°C° 0.4 mm 7 mps 768 mmHg 85%
    03:00 +8°C° 0.4 mm 7 mps 768 mmHg 85%
    04:00 +8°C° 0.4 mm 7 mps 768 mmHg 86%
    05:00 +8°C° 0.3 mm 7 mps 768 mmHg 85%
    06:00 +8°C° 0.3 mm 7 mps 769 mmHg 83%
    07:00 +8°C° 0.3 mm 7 mps 769 mmHg 82%
    08:00 +9°C° 0.2 mm 7 mps 769 mmHg 78%
    09:00 +10°C° 0.2 mm 7 mps 769 mmHg 75%
    10:00 +10°C° 0.2 mm 8 mps 769 mmHg 71%
    11:00 +10°C° 0.2 mm 8 mps 769 mmHg 69%
    12:00 +11°C° 0.2 mm 8 mps 769 mmHg 67%
    13:00 +11°C° 0.2 mm 8 mps 769 mmHg 65%
    14:00 +11°C° 0.1 mm 7 mps 768 mmHg 67%
    15:00 +10°C° 0.1 mm 7 mps 768 mmHg 68%
    16:00 +10°C° 0.1 mm 7 mps 768 mmHg 70%
    17:00 +10°C° 0.2 mm 7 mps 768 mmHg 75%
    18:00 +9°C° 0.2 mm 6 mps 768 mmHg 80%
    19:00 +9°C° 0.2 mm 5 mps 767 mmHg 84%
    20:00 +9°C° 0.7 mm 5 mps 767 mmHg 86%
    21:00 +9°C° 0.7 mm 5 mps 767 mmHg 87%
    22:00 +9°C° 0.7 mm 5 mps 767 mmHg 89%
    23:00 +9°C° 0.9 mm 5 mps 767 mmHg 89%

    Day after tomorrow, 19 December, Tuesday

    Time Temperature Precipitation Wind Pressure Humidity
    00:00 +9°C° 0.9 mm 6 mps 767 mmHg 89%
    01:00 +9°C° 0.9 mm 6 mps 766 mmHg 89%
    02:00 +8°C° 1.3 mm 6 mps 766 mmHg 89%
    03:00 +8°C° 1.3 mm 6 mps 765 mmHg 88%
    04:00 +8°C° 1.3 mm 7 mps 765 mmHg 88%
    05:00 +8°C° 1.7 mm 7 mps 765 mmHg 88%
    06:00 +8°C° 1.7 mm 6 mps 765 mmHg 87%
    07:00 +8°C° 1.7 mm 6 mps 765 mmHg 87%
    08:00 +8°C° 2 mm 6 mps 765 mmHg 87%
    09:00 +8°C° 2 mm 6 mps 765 mmHg 86%
    10:00 +8°C° 2 mm 5 mps 765 mmHg 85%
    11:00 +9°C° 0.9 mm 5 mps 765 mmHg 83%
    12:00 +9°C° 0.9 mm 6 mps 764 mmHg 81%
    13:00 +10°C° 0.9 mm 6 mps 764 mmHg 79%
    14:00 +10°C° 0.2 mm 5 mps 764 mmHg 77%
    15:00 +12°C° 0.2 mm 5 mps 764 mmHg 75%
    16:00 +12°C° 0.2 mm 4 mps 764 mmHg 74%
    17:00 +11°C° 0.3 mm 4 mps 764 mmHg 76%
    18:00 +10°C° 0.3 mm 3 mps 764 mmHg 78%
    19:00 +10°C° 0.3 mm 2 mps 765 mmHg 79%
    20:00 +9°C° 0.1 mm 3 mps 765 mmHg 79%
    21:00 +9°C° 0.1 mm 3 mps 766 mmHg 79%
    22:00 +9°C° 0.1 mm 3 mps 767 mmHg 79%
    23:00 +9°C° 0.3 mm 3 mps 767 mmHg 80%

    20 December, Wednesday

    Time Temperature Precipitation Wind Pressure Humidity
    00:00 +9°C° 0.3 mm 2 mps 767 mmHg 80%
    01:00 +9°C° 0.3 mm 2 mps 768 mmHg 80%
    02:00 +9°C° 0.4 mm 3 mps 768 mmHg 81%
    03:00 +9°C° 0.4 mm 3 mps 768 mmHg 82%
    04:00 +7°C° 0.4 mm 4 mps 768 mmHg 83%
    05:00 +8°C° 0.4 mm 4 mps 768 mmHg 85%
    06:00 +8°C° 0.4 mm 4 mps 769 mmHg 86%
    07:00 +8°C° 0.4 mm 4 mps 769 mmHg 87%
    08:00 +8°C° 0.2 mm 4 mps 770 mmHg 87%
    09:00 +10°C° 0.2 mm 4 mps 770 mmHg 87%
    10:00 +11°C° 0.2 mm 4 mps 771 mmHg 86%
    11:00 +11°C° 0.2 mm 4 mps 771 mmHg 82%
    12:00 +12°C° 0.2 mm 4 mps 771 mmHg 78%
    13:00 +13°C° 0.2 mm 4 mps 770 mmHg 74%
    14:00 +12°C° 0.1 mm 3 mps 770 mmHg 74%
    15:00 +12°C° 0.1 mm 3 mps 770 mmHg 74%
    16:00 +12°C° 0.1 mm 3 mps 770 mmHg 74%
    17:00 +11°C° 0 mm 3 mps 771 mmHg 77%
    18:00 +10°C° 0 mm 2 mps 771 mmHg 80%
    19:00 +9°C° 0 mm 2 mps 772 mmHg 83%
    20:00 +9°C° 0 mm 2 mps 772 mmHg 83%
    21:00 +10°C° 0 mm 1 mps 772 mmHg 83%
    22:00 +10°C° 0 mm 1 mps 773 mmHg 83%
    23:00 +8°C° 0 mm 2 mps 773 mmHg 84%

    21 December, Thursday

    Time Temperature Precipitation Wind Pressure Humidity
    00:00 +8°C° 0 mm 2 mps 773 mmHg 84%
    01:00 +8°C° 0 mm 2 mps 773 mmHg 84%
    02:00 +8°C° 0.1 mm 3 mps 773 mmHg 84%
    03:00 +8°C° 0.1 mm 3 mps 773 mmHg 84%
    04:00 +8°C° 0.1 mm 3 mps 773 mmHg 84%
    05:00 +9°C° 0.1 mm 3 mps 773 mmHg 84%
    06:00 +9°C° 0.1 mm 3 mps 773 mmHg 83%
    07:00 +9°C° 0.1 mm 2 mps 774 mmHg 82%
    08:00 +10°C° 0.1 mm 2 mps 774 mmHg 81%
    09:00 +10°C° 0.1 mm 2 mps 774 mmHg 80%
    10:00 +12°C° 0.1 mm 2 mps 775 mmHg 79%
    11:00 +12°C° 0.1 mm 2 mps 774 mmHg 78%
    12:00 +13°C° 0.1 mm 2 mps 774 mmHg 78%
    13:00 +13°C° 0.1 mm 2 mps 774 mmHg 77%
    14:00 +13°C° 0.1 mm 2 mps 774 mmHg 77%
    15:00 +13°C° 0.1 mm 2 mps 774 mmHg 78%
    16:00 +13°C° 0.1 mm 2 mps 774 mmHg 79%
    17:00 +12°C° 0.1 mm 2 mps 774 mmHg 83%
    18:00 +11°C° 0.1 mm 1 mps 775 mmHg 86%
    19:00 +10°C° 0.1 mm 1 mps 775 mmHg 90%
    20:00 +10°C° 0 mm 1 mps 775 mmHg 90%
    21:00 +10°C° 0 mm 1 mps 776 mmHg 90%
    22:00 +9°C° 0 mm 2 mps 776 mmHg 90%
    23:00 +9°C° 0 mm 2 mps 776 mmHg 90%

    22 December, Friday

    Time Temperature Precipitation Wind Pressure Humidity
    00:00 +9°C° 0 mm 2 mps 776 mmHg 90%
    01:00 +9°C° 0 mm 2 mps 775 mmHg 90%
    02:00 +9°C° 0 mm 2 mps 775 mmHg 90%
    03:00 +9°C° 0 mm 3 mps 775 mmHg 89%
    04:00 +9°C° 0 mm 3 mps 775 mmHg 89%
    05:00 +9°C° 0 mm 3 mps 775 mmHg 89%
    06:00 +9°C° 0 mm 3 mps 775 mmHg 88%
    07:00 +9°C° 0 mm 3 mps 775 mmHg 88%
    08:00 +10°C° 0 mm 3 mps 775 mmHg 85%
    09:00 +11°C° 0 mm 3 mps 774 mmHg 82%
    10:00 +12°C° 0 mm 3 mps 774 mmHg 80%
    11:00 +12°C° 0 mm 4 mps 774 mmHg 78%
    12:00 +13°C° 0 mm 4 mps 773 mmHg 76%
    13:00 +14°C° 0 mm 4 mps 773 mmHg 74%
    14:00 +13°C° 0.1 mm 4 mps 773 mmHg 76%
    15:00 +13°C° 0.1 mm 4 mps 772 mmHg 77%
    16:00 +13°C° 0.1 mm 5 mps 772 mmHg 79%
    17:00 +12°C° 0.1 mm 5 mps 772 mmHg 82%
    18:00 +12°C° 0.1 mm 5 mps 772 mmHg 86%
    19:00 +10°C° 0.1 mm 5 mps 771 mmHg 89%
    20:00 +10°C° 0.1 mm 6 mps 771 mmHg 89%
    21:00 +10°C° 0.1 mm 6 mps 771 mmHg 89%
    22:00 +10°C° 0.1 mm 6 mps 771 mmHg 89%
    23:00 +10°C° 0.2 mm 7 mps 770 mmHg 89%
    Show more

    XHprof extension not loaded